Weather History for Punta Gorda, FL

Change the Weather History Date:

Thursday, January 31, 2013

  Actual Average Record
Temperature  
Mean Temperature 60 °F -  
Max Temperature 72 °F 72 °F 84 °F (2002)
Min Temperature 48 °F 50 °F 39 °F (2009)
Degree Days  
Heating Degree Days 5    
Growing Degree Days 10 (Base 50)    
Moisture  
Dew Point 52 °F    
Average Humidity 73    
Maximum Humidity 96    
Minimum Humidity 31    
Precipitation  
Precipitation 0.28 in - - ()
Sea Level Pressure  
Sea Level Pressure 30.11 in    
Wind  
Wind Speed 12 mph (NNW)    
Max Wind Speed 22 mph    
Max Gust Speed 29 mph    
Visibility 8 miles    
Events Rain    
Averages and records for this station are not official NWS values.
T = Trace of Precipitation, MM = Missing Value Source: NWS Daily Summary

Daily Weather History Graph

Daily Weather History Graph

Search for Another Location

Airport:

Trip Planner

Search our weather history database for the weather conditions in past years. The results will help you decide how hot, cold, wet, or windy it might be!

Date:

Astronomy

Jan. 31, 2013 Rise Set
Actual Time 7:13 AM EST 6:09 PM EST
Civil Twilight 6:49 AM EST 6:33 PM EST
Nautical Twilight 6:21 AM EST 7:01 PM EST
Astronomical Twilight 5:54 AM EST 7:29 PM EST
Moon 10:36 PM EST (1/31) 9:43 AM EST (1/31)
Length of Visible Light 11h 44m
Length of Day
10h 55m
Waning Gibbous, 80% of the Moon is Illuminated
Jan 31
Waning Gibbous
Feb 3
Last Quarter
Feb 10
New
Feb 17
First Quarter
Feb 25
Full

Hourly Weather History & Observations

Time (EST) Temp. Dew Point Humidity Pressure Visibility Wind Dir Wind Speed Gust Speed Precip Events Conditions
12:53 AM 70.0 °F 66.9 °F 90% 29.99 in 10.0 mi South 10.4 mph - N/A   Clear
1:53 AM 71.1 °F 66.9 °F 87% 29.98 in 10.0 mi South 10.4 mph - N/A   Partly Cloudy
2:53 AM 72.0 °F 68.0 °F 87% 29.96 in 10.0 mi SSW 12.7 mph - N/A   Mostly Cloudy
3:31 AM 64.4 °F 60.8 °F 88% 30.00 in 3.0 mi NNW 21.9 mph 27.6 mph 0.08 in Rain Heavy Rain
3:38 AM 62.6 °F 60.8 °F 94% 30.01 in 3.0 mi NNW 19.6 mph 28.8 mph 0.10 in Rain Rain
3:53 AM 62.1 °F 60.1 °F 93% 30.01 in 10.0 mi NNW 15.0 mph 25.3 mph 0.10 in Rain Light Rain
4:15 AM 60.8 °F 59.0 °F 94% 30.03 in 6.0 mi NNW 16.1 mph - 0.03 in Rain Light Rain
4:33 AM 60.8 °F 57.2 °F 88% 30.03 in 4.0 mi NNW 15.0 mph 24.2 mph 0.05 in Rain Light Rain
4:44 AM 60.8 °F 57.2 °F 88% 30.03 in 4.0 mi NNW 10.4 mph - 0.06 in Rain Light Rain
4:53 AM 60.1 °F 57.9 °F 93% 30.04 in 4.0 mi NNW 13.8 mph - 0.07 in Rain Light Rain
5:05 AM 60.8 °F 57.2 °F 88% 30.04 in 4.0 mi North 10.4 mph - 0.02 in Rain Light Rain
5:46 AM 59.0 °F 57.2 °F 94% 30.05 in 5.0 mi North 9.2 mph - 0.08 in Rain Light Rain
5:53 AM 59.0 °F 57.9 °F 96% 30.06 in 7.0 mi North 5.8 mph - 0.09 in Rain Light Rain
6:53 AM 60.1 °F 57.9 °F 93% 30.09 in 10.0 mi North 4.6 mph - 0.01 in Rain Light Rain
7:53 AM 61.0 °F 57.9 °F 90% 30.12 in 10.0 mi North 6.9 mph - 0.00 in   Overcast
8:53 AM 61.0 °F 57.9 °F 90% 30.14 in 10.0 mi North 6.9 mph - 0.00 in   Mostly Cloudy
9:17 AM 60.8 °F 57.2 °F 88% 30.14 in 10.0 mi NE 8.1 mph - 0.01 in   Mostly Cloudy
9:53 AM 63.0 °F 57.9 °F 84% 30.16 in 10.0 mi North 10.4 mph - 0.01 in   Mostly Cloudy
10:00 AM 62.6 °F 57.2 °F 82% 30.16 in 10.0 mi North 9.2 mph - N/A   Mostly Cloudy
10:53 AM 66.9 °F 55.9 °F 68% 30.17 in 10.0 mi North 9.2 mph - N/A   Mostly Cloudy
11:00 AM 66.2 °F 55.4 °F 68% 30.17 in 10.0 mi North 10.4 mph - N/A   Mostly Cloudy
11:53 AM 66.0 °F 54.0 °F 65% 30.16 in 10.0 mi Variable 4.6 mph - N/A   Partly Cloudy
12:53 PM 69.1 °F 50.0 °F 51% 30.15 in 10.0 mi NNW 9.2 mph - N/A   Clear
1:53 PM 70.0 °F 45.0 °F 41% 30.13 in 10.0 mi North 12.7 mph - N/A   Clear
2:53 PM 70.0 °F 39.9 °F 33% 30.13 in 10.0 mi NNW 11.5 mph - N/A   Clear
3:53 PM 68.0 °F 39.9 °F 36% 30.14 in 10.0 mi NNW 12.7 mph - N/A   Clear
4:53 PM 64.9 °F 33.1 °F 31% 30.16 in 10.0 mi NNW 12.7 mph - N/A   Clear
5:53 PM 59.0 °F 33.1 °F 38% 30.18 in 10.0 mi NNW 11.5 mph - N/A   Clear
7:53 PM 53.1 °F 34.0 °F 48% 30.22 in 10.0 mi NNW 9.2 mph - N/A   Clear
8:53 PM 52.0 °F 35.1 °F 53% 30.23 in 10.0 mi NNW 10.4 mph - N/A   Clear
9:53 PM 51.1 °F 35.1 °F 54% 30.23 in 10.0 mi NNW 12.7 mph - N/A   Clear
10:53 PM 48.9 °F 36.0 °F 61% 30.25 in 10.0 mi North 10.4 mph - N/A   Clear
11:53 PM 48.0 °F 36.0 °F 63% 30.25 in 10.0 mi North 9.2 mph - N/A   Clear